FENGYUN 1C DEB

Satellite information

Favourite Embed

Satellite Type and Status

DEBRISIN ORBIT

Key statistics

Satellite FENGYUN 1C DEB at a glance.

Uptime

9496

Days in orbit

Revolutions

≈ 14.6

Per day

Orbit

SSO

Sun Synchronous Orbit

Inclination

98.7

Latest

Satellite identification and parameters

Extended collection of information and parameters for FENGYUN 1C DEB.

Object identification

Identified? True

Debris? True

Object name: FENGYUN 1C DEB

International designator: 1999-025JF

Object number (NORAD): 29933

Object ID (CCSDS): 29933

Country: PEOPLES REPUBLIC OF CHINA (PRC)

Current information (Y/N): Y

RCS size: SMALL

Orbital parameters

Period: 98.733 minutes

Inclination: 98.748 deg

SMA: 7076.216 km

Apoapsis: 701.347 km

Periapsis: 694.816 km

RAAN: 219.2572 deg

Eccentricy: 0.0004615

Argument of periapsis: 267.0931 deg

Mean anomaly: 220.963 deg

Mean motion: 14.58482076 rev/day

Mean motion (dot): 0.00013626 rev/day2

B* drag term: 0.0029401 1/REarth

Two-line elements (TLE)

Creation date: May 9, 2025, 2:46 a.m.

Reference frame: TEME

Reference center: EARTH

Epoch: May 8, 2025, 12:58 p.m. UTC

TLE line 0: 0 FENGYUN 1C DEB

TLE line 1: 1 29933U 99025JF 25128.54070118 .00013626 00000-0 29401-2 0 9991

TLE line 2: 2 29933 98.7480 219.2572 0004615 267.0931 220.9630 14.58482076953189

Live tracking on map

Real-time ground track for satellite FENGYUN 1C DEB.

In-orbit conjunctions

A list of the most updated potential collisions computed for object FENGYUN 1C DEB.

Target Orbit TCA Probability of collision Miss distance Type
CZ-6A DEB LEO 2025-03-04 06:46:12 0.000126677 561.0 (m) DEBRIS
CZ-4B R/B SSO 2024-12-09 04:43:45 0.0001446308 475.0 (m) ROCKET BODY
FENGYUN 1C DEB SSO 2024-07-09 03:27:16 0.0001119567 162.0 (m) DEBRIS

Associated space launch

Chinese polar orbiting meteorological satellite

FENGYUN 1C DEB was lifted into orbit during the mission ‘Long March 4B | Feng Yun 1C’, on board a Long March 4B space rocket.

The launch took place on May 10, 1999, 1:33 a.m. from Launch Complex 7.

For more information about the launch, click the button.

Launch to space Long March 4B | Feng Yun 1C
Long March 4B | Feng Yun 1C

Agency: N/A

Status: Launch Successful

Launch date: May 10, 1999, 1:33 a.m. UTC

Rocket: Long March 4B

Launch pad: Launch Complex 7

Location: Taiyuan Satellite Launch Center, People's Republic of China

...

Latest news about this satellite

There are no fresh news available about this satellite. Check back as we update our databases every day.


Newsletter sign-up

Weekly statistics, charts and insights to help you stay on top of the space industry.